Weather in Mankovo-Berezovskaya

Russia / Rostov Oblast     48°45′55″N   41°33′05″E
temp.,
°C
wind,
m/s
gust,
m/s
humid.,
%
clouds,
%
prec.,
mm/h
press.,
hPa
HPBL,
m
25 february, thu
thu2500:00−13s246587 0.0 1039295
03:00−12ssw467092 0.0 1038372
06:00−12ssw467198 0.0 1037308
09:00−11ssw586999 0.0 1035343
12:00−8ssw6961100 0.0 1033422
15:00−6sw61066100 0.0 1030531
18:00−5sw51083100 0.0 1028402
21:00−4sw71281100 0.1 1026404
26 february, fri
fri2600:00−2wsw61394100 0.6 1024419
03:000w61396100 1.3 1023374
06:00+1w51197100 0.4 1021350
09:00+1w61198100 0.8 1022313
12:00+2w510100100 0.1 1021333
15:00+3w61298100 0.1 1020408
18:00+3wsw51198100 0.0 1019326
21:00+2wsw61297100 0.0 1018338
27 february, sat
sat2700:00+3wsw61397100 0.0 1016426
03:00+3wsw61396100 0.1 1015395
06:00+2wsw61197100 0.3 1013358
09:00+3w61295100 0.3 1013564
12:00+4w61288100 0.0 1011813
15:00+4w61285100 0.1 1011755
18:00+2w51190100 0.1 1011426
21:00+2w4991100 0.2 1012341
28 february, sun
sun2800:00+1wnw4995100 0.1 1011444
03:00+1w4791100 0.1 1011265
06:000wnw489790 0.1 1011341
09:00+1wnw468892 0.1 1012415
12:00+2nw458199 0.1 1013675
15:00+1nnw677697 0.3 1014758
18:00−1nnw477687 0.0 1016505
21:00−2n487694 0.0 1019697
1 march, mon
mon100:00−3n477797 0.0 1020742
03:00−3n467599 0.0 1022759
06:00−4nnw4576100 0.0 1023713
09:00−3nnw4674100 0.1 1025784
12:00−2nnw4564100 0.0 1027886
15:00−2nnw4564100 0.1 1027900
18:00−2nnw466888 0.0 1028891
21:00−3n377370 0.0 1030738